(103852) = 2000 DH36

Discovered at Socorro on 2000-02-29 by LINEAR.

Orbit

Orbit type: Main Belt

Note: WebGL enabled browser required.

epoch2024-03-31.0
epoch JD2460400.5
perihelion date2019-05-26.48403
perihelion JD2458629.98403
argument of perihelion (°)352.62630
ascending node (°)147.31525
inclination (°)2.62663
eccentricity0.0093513
perihelion distance (AU)2.8398493
Tisserand w.r.t. Jupiter3.3
ΔV w.r.t. Earth (km/sec)10.5
semimajor axis (AU)2.8666562
mean anomaly (°)359.53426
mean daily motion (°/day)0.20306750
aphelion distance (AU)2.893
period (years)4.85
P-vector [x]-0.76546117
P-vector [y]0.59269814
P-vector [z]0.25055562
Q-vector [x]-0.64300604
Q-vector [y]-0.71950379
Q-vector [z]-0.26240718
absolute magnitude15.69
phase slope0.15
uncertainty0
referenceMPEC 2024-E190
observations used615
oppositions17
arc length (days)8771
first opposition used2000
last opposition used2024
residual rms (arc-secs)0.80
perturbers coarse indicatorM-v
perturbers precise indicator003Ek
first observation date used2000-02-06.0
last observation date used2024-02-11.0
computer nameMPCLINUX
JD of orbit computation2456639.686431
perihelion JD uncertainty (days)1.9046E-03
argument of perihelion uncertainty (°)4.1759E-04
ascending node uncertainty (°)1.6046E-04
inclination uncertainty (°)1.1690E-05
eccentricity uncertainty 8.4558E-08
perihelion distance uncertainty (AU)2.4716E-07
Minimum Orbit Intersection Distances (in AU)
for orbit epoch: 2460400.5, reference: E2024-GF4
Mercury2.41052
Venus2.12294
Earth1.85043
Mars1.17628
Jupiter2.06798
Saturn6.19324
Uranus15.5969
Neptune26.948

Observations

634 total observations over interval: 2000 02 06.44822 – 2024 02 11.517524
These data are available for download (format description).

Date (UT) J2000 RA J2000 Dec Magn Location Ref
2000 02 06.44822 10 36 33.94 +08 59 09.0 19.3 V 691 – Steward Observatory, Kitt Peak-Spacewatch MPS 27841
2000 02 06.51732 10 36 31.03 +08 59 29.2 19.1 V 691 – Steward Observatory, Kitt Peak-Spacewatch MPS 27841
2000 02 06.53905 10 36 30.14 +08 59 35.4 19.3 V 691 – Steward Observatory, Kitt Peak-Spacewatch MPS 27841
2000 02 29.24168 10 18 49.95 +11 03 37.9 19.3   704 – Lincoln Laboratory ETS, New Mexico MPS 11195
2000 02 29.25503 10 18 49.23 +11 03 43.5 20.3   704 – Lincoln Laboratory ETS, New Mexico MPS 11195
2000 02 29.26837 10 18 48.52 +11 03 48.4 20.1   704 – Lincoln Laboratory ETS, New Mexico MPS 11195
2000 02 29.28171 10 18 47.84 +11 03 52.4 19.8   704 – Lincoln Laboratory ETS, New Mexico MPS 11196
2000 02 29.29507 10 18 47.20 +11 03 56.4 20.1   704 – Lincoln Laboratory ETS, New Mexico MPS 11196
2000 03 03.19443 10 16 29.11 +11 19 31.4 19.6   704 – Lincoln Laboratory ETS, New Mexico MPS 11196
2000 03 03.20771 10 16 28.42 +11 19 36.2 19.8   704 – Lincoln Laboratory ETS, New Mexico MPS 11196
2000 03 03.22099 10 16 27.80 +11 19 39.8 19.9   704 – Lincoln Laboratory ETS, New Mexico MPS 11196
2000 03 03.23424 10 16 27.13 +11 19 44.3 20.1   704 – Lincoln Laboratory ETS, New Mexico MPS 11196
2000 03 03.24750 10 16 26.50 +11 19 48.2 20.1   704 – Lincoln Laboratory ETS, New Mexico MPS 11196
2000 03 05.29965 10 14 50.88 +11 30 33.4 19.2   704 – Lincoln Laboratory ETS, New Mexico MPS 11196
2000 03 05.31286 10 14 50.26 +11 30 35.2 19.7   704 – Lincoln Laboratory ETS, New Mexico MPS 11196
2000 03 05.32607 10 14 49.58 +11 30 39.4 20.2   704 – Lincoln Laboratory ETS, New Mexico MPS 11196
2000 03 05.33930 10 14 48.96 +11 30 43.9 20.0   704 – Lincoln Laboratory ETS, New Mexico MPS 11196
2000 03 05.35253 10 14 48.35 +11 30 47.4 19.9   704 – Lincoln Laboratory ETS, New Mexico MPS 11196
2001 05 24.22149 16 34 27.32 -17 58 08.1 18.5 R 807 – Cerro Tololo Observatory, La Serena MPS 65562
2001 05 24.28470 16 34 23.90 -17 58 00.7   807 – Cerro Tololo Observatory, La Serena MPS 65562
2002 08 29.45574 22 52 51.42 -08 02 22.2 19.3   644 – Palomar Mountain/NEAT MPS 65562
2002 08 29.46612 22 52 50.93 -08 02 25.2 19.3   644 – Palomar Mountain/NEAT MPS 65562
2002 08 29.47659 22 52 50.43 -08 02 28.9 19.4   644 – Palomar Mountain/NEAT MPS 65562
2002 09 05.26874 22 47 35.89 -08 40 26.7 19.3   704 – Lincoln Laboratory ETS, New Mexico MPS 65562
2002 09 05.28276 22 47 35.37 -08 40 30.5 19.5   704 – Lincoln Laboratory ETS, New Mexico MPS 65562
2002 09 05.31081 22 47 34.08 -08 40 40.6 19.5   704 – Lincoln Laboratory ETS, New Mexico MPS 65562
2002 09 16.13932 22 39 27.55 -09 37 54.2 20.8   644 – Palomar Mountain/NEAT MPS 65562
2002 09 16.22298 22 39 23.86 -09 38 19.6 19.8   644 – Palomar Mountain/NEAT MPS 65562
2002 09 16.29068 22 39 20.93 -09 38 39.4 20.0   644 – Palomar Mountain/NEAT MPS 65562
2002 09 29.19285 22 31 23.40 -10 33 42.8 20.5 V 291 – LPL/Spacewatch II MPS 65562
2002 09 29.21616 22 31 22.65 -10 33 47.7 20.2 V 291 – LPL/Spacewatch II MPS 65562
2002 09 29.26211 22 31 21.15 -10 33 57.3 20.4 V 291 – LPL/Spacewatch II MPS 65562
2005 02 09.35595 11 34 01.53 +03 50 18.3 19.8   704 – Lincoln Laboratory ETS, New Mexico MPS 126313
2005 02 09.38105 11 34 00.80 +03 50 24.0 20.0   704 – Lincoln Laboratory ETS, New Mexico MPS 126313
2005 02 09.39387 11 34 00.36 +03 50 27.7 20.4   704 – Lincoln Laboratory ETS, New Mexico MPS 126313
2005 03 04.16742 11 19 00.69 +05 50 35.2 19.8 V 691 – Steward Observatory, Kitt Peak-Spacewatch MPS 127089
2005 03 04.19675 11 18 59.27 +05 50 45.3 19.7 V 691 – Steward Observatory, Kitt Peak-Spacewatch MPS 127089
2005 03 04.22254 11 18 58.03 +05 50 54.7 19.7 V 691 – Steward Observatory, Kitt Peak-Spacewatch MPS 127089
2005 03 08.29382 11 15 45.34 +06 15 02.4 19.2   704 – Lincoln Laboratory ETS, New Mexico MPS 127756
2005 03 08.30583 11 15 44.70 +06 15 06.2 19.5   704 – Lincoln Laboratory ETS, New Mexico MPS 127756
2005 03 08.32915 11 15 43.61 +06 15 14.9 19.4   704 – Lincoln Laboratory ETS, New Mexico MPS 127756
2005 03 14.27146 11 11 02.56 +06 49 52.3 19.6   704 – Lincoln Laboratory ETS, New Mexico MPS 128897
2005 03 14.28231 11 11 02.09 +06 49 55.7 19.7   704 – Lincoln Laboratory ETS, New Mexico MPS 128897
2005 03 14.29381 11 11 01.50 +06 49 59.5 19.4   704 – Lincoln Laboratory ETS, New Mexico MPS 128897
2005 03 14.30465 11 11 00.98 +06 50 02.2 19.7   704 – Lincoln Laboratory ETS, New Mexico MPS 128897
2005 03 14.31606 11 11 00.42 +06 50 05.4 19.7   704 – Lincoln Laboratory ETS, New Mexico MPS 128897
2005 03 30.25373 10 59 50.40 +08 10 10.9 18.7 R 703 – Catalina Sky Survey MPS 130146
2005 03 30.26179 10 59 50.17 +08 10 15.5 18.1 R 703 – Catalina Sky Survey MPS 130146
2005 03 30.26986 10 59 49.96 +08 10 17.5 18.1 R 703 – Catalina Sky Survey MPS 130146
2005 03 30.27787 10 59 49.55 +08 10 16.8 19.3 R 703 – Catalina Sky Survey MPS 130146
2005 04 11.19780 10 54 08.41 +08 50 07.5 19.5 R G96 – Mt. Lemmon Survey MPS 131525
2005 04 11.20420 10 54 08.26 +08 50 08.4 19.4 R G96 – Mt. Lemmon Survey MPS 131525
2005 04 11.21060 10 54 08.11 +08 50 09.5 20.0 R G96 – Mt. Lemmon Survey MPS 131525
2005 04 11.21701 10 54 07.98 +08 50 10.6 19.4 R G96 – Mt. Lemmon Survey MPS 131525
2005 05 11.14817 10 53 44.97 +08 56 42.7 19.7 R G96 – Mt. Lemmon Survey MPS 133847
2005 05 11.15558 10 53 45.08 +08 56 41.6 19.9 R G96 – Mt. Lemmon Survey MPS 133847
2005 05 11.16300 10 53 45.21 +08 56 40.8 19.8 R G96 – Mt. Lemmon Survey MPS 133847
2005 05 11.17044 10 53 45.36 +08 56 39.9 19.9 R G96 – Mt. Lemmon Survey MPS 133847
2007 09 12.30009 23 40 54.07 -03 54 11.3 19.0 R 699 – Lowell Observatory-LONEOS MPS 215786
2007 09 12.32293 23 40 52.87 -03 54 17.7   699 – Lowell Observatory-LONEOS MPS 215786
2007 09 12.34578 23 40 51.79 -03 54 26.1   699 – Lowell Observatory-LONEOS MPS 215786
2007 09 12.36862 23 40 50.78 -03 54 33.1   699 – Lowell Observatory-LONEOS MPS 215786
2007 09 14.23012 23 39 25.81 -04 05 21.6 19.2 V G96 – Mt. Lemmon Survey MPS 217524
2007 09 14.23569 23 39 25.56 -04 05 23.6 19.1 V G96 – Mt. Lemmon Survey MPS 217524
2007 09 14.23578 23 39 25.50 -04 05 23.1 19.3   704 – Lincoln Laboratory ETS, New Mexico MPS 217524
2007 09 14.24119 23 39 25.30 -04 05 25.5 19.1 V G96 – Mt. Lemmon Survey MPS 217524
2007 09 14.24670 23 39 25.02 -04 05 27.4 19.2 V G96 – Mt. Lemmon Survey MPS 217524
2007 09 14.24748 23 39 24.96 -04 05 26.7 19.6   704 – Lincoln Laboratory ETS, New Mexico MPS 217524
2007 09 14.25917 23 39 24.35 -04 05 30.6 19.7   704 – Lincoln Laboratory ETS, New Mexico MPS 217524
2007 09 14.27086 23 39 23.85 -04 05 34.9 19.4   704 – Lincoln Laboratory ETS, New Mexico MPS 217524
2007 09 14.31318 23 39 21.85 -04 05 49.8 19.2 R 699 – Lowell Observatory-LONEOS MPS 215786
2007 09 14.33602 23 39 20.71 -04 05 57.0   699 – Lowell Observatory-LONEOS MPS 215786
2007 09 14.35887 23 39 19.66 -04 06 05.2   699 – Lowell Observatory-LONEOS MPS 215786
2007 09 14.38171 23 39 18.59 -04 06 15.3   699 – Lowell Observatory-LONEOS MPS 215786
2007 09 19.17699 23 35 37.98 -04 33 47.4 18.9 C 704 – Lincoln Laboratory ETS, New Mexico MPS 291155
2007 09 19.18913 23 35 37.49 -04 33 51.9 18.9 C 704 – Lincoln Laboratory ETS, New Mexico MPS 291155
2007 09 19.21340 23 35 36.24 -04 34 01.3 19.7 C 704 – Lincoln Laboratory ETS, New Mexico MPS 291155
2007 09 19.22553 23 35 35.64 -04 34 05.2 19.4 C 704 – Lincoln Laboratory ETS, New Mexico MPS 291155
2007 10 04.22954 23 24 47.70 -05 52 18.4 19.8 V 703 – Catalina Sky Survey MPS 218340
2007 10 04.23769 23 24 47.34 -05 52 19.7 20.1 V 703 – Catalina Sky Survey MPS 218340
2007 10 04.24584 23 24 46.94 -05 52 21.9 19.7 V 703 – Catalina Sky Survey MPS 218340
2007 10 04.25396 23 24 46.69 -05 52 25.5 19.9 V 703 – Catalina Sky Survey MPS 218340
2007 10 08.16346 23 22 22.34 -06 09 21.5 19.8 V 691 – Steward Observatory, Kitt Peak-Spacewatch MPS 219860
2007 10 08.17647 23 22 21.77 -06 09 24.5 19.7 V 691 – Steward Observatory, Kitt Peak-Spacewatch MPS 219860
2007 10 08.18949 23 22 21.36 -06 09 27.6 19.9 V 691 – Steward Observatory, Kitt Peak-Spacewatch MPS 219860
2007 10 10.15300 23 21 14.38 -06 17 14.4 19.9 V 691 – Steward Observatory, Kitt Peak-Spacewatch MPS 219860
2007 10 10.16095 23 21 14.11 -06 17 16.4 19.9 V 691 – Steward Observatory, Kitt Peak-Spacewatch MPS 219860
